TimeEDT,TemperatureF,Dew PointF,Humidity,Sea Level PressureIn,VisibilityMPH,Wind Direction,Wind SpeedMPH,Gust SpeedMPH,PrecipitationIn,Events,Conditions,WindDirDegrees,DateUTC
12:53 AM,75.0,63.0,66,30.05,10.0,ESE,8.1,-,N/A,,Partly Cloudy,110,2012-03-24 04:53:00
1:53 AM,75.0,63.0,66,30.05,10.0,ESE,10.4,-,N/A,,Clear,120,2012-03-24 05:53:00
2:53 AM,75.0,62.1,64,30.03,10.0,ESE,8.1,-,N/A,,Clear,110,2012-03-24 06:53:00
3:53 AM,73.9,63.0,68,30.01,10.0,ESE,8.1,-,N/A,,Clear,120,2012-03-24 07:53:00
4:53 AM,73.4,62.6,69,30.01,10.0,ESE,9.2,-,N/A,,Clear,120,2012-03-24 08:53:00
5:53 AM,75.0,63.0,66,30.02,10.0,SE,8.1,-,N/A,,Partly Cloudy,130,2012-03-24 09:53:00
6:53 AM,73.9,63.0,68,30.03,10.0,ESE,8.1,-,N/A,,Clear,120,2012-03-24 10:53:00
7:53 AM,75.2,62.6,65,30.04,10.0,ESE,9.2,-,N/A,,Clear,120,2012-03-24 11:53:00
8:53 AM,77.0,64.0,64,30.04,10.0,ESE,8.1,-,N/A,,Clear,110,2012-03-24 12:53:00
9:53 AM,78.1,64.0,62,30.06,10.0,ESE,8.1,-,N/A,,Clear,120,2012-03-24 13:53:00
10:53 AM,79.0,64.9,62,30.06,10.0,SE,9.2,-,N/A,,Clear,130,2012-03-24 14:53:00
11:53 AM,80.1,66.0,62,30.06,10.0,ESE,11.5,-,N/A,,Partly Cloudy,120,2012-03-24 15:53:00
12:53 PM,81.0,66.0,60,30.05,10.0,ESE,10.4,-,N/A,,Clear,110,2012-03-24 16:53:00
1:53 PM,81.0,66.9,62,30.02,10.0,ESE,10.4,-,N/A,,Partly Cloudy,120,2012-03-24 17:53:00
2:53 PM,81.0,64.9,58,29.99,10.0,ESE,10.4,-,N/A,,Clear,120,2012-03-24 18:53:00
3:53 PM,81.0,66.0,60,29.98,10.0,ESE,10.4,-,N/A,,Clear,120,2012-03-24 19:53:00
4:53 PM,80.1,66.9,64,29.97,10.0,ESE,9.2,-,N/A,,Clear,120,2012-03-24 20:53:00
5:53 PM,80.1,66.9,64,29.98,10.0,SE,9.2,-,N/A,,Clear,130,2012-03-24 21:53:00
6:53 PM,79.0,66.0,64,29.98,10.0,ESE,5.8,-,N/A,,Clear,110,2012-03-24 22:53:00
7:53 PM,75.9,66.0,71,29.97,10.0,East,4.6,-,N/A,,Clear,100,2012-03-24 23:53:00
8:53 PM,75.9,66.0,71,29.99,10.0,ESE,4.6,-,N/A,,Clear,120,2012-03-25 00:53:00
9:53 PM,75.9,66.0,71,30.00,10.0,SE,5.8,-,N/A,,Clear,130,2012-03-25 01:53:00
10:53 PM,75.9,66.0,71,30.01,10.0,SE,5.8,-,N/A,,Clear,130,2012-03-25 02:53:00
11:53 PM,75.9,66.9,74,30.01,10.0,SE,6.9,-,N/A,,Clear,140,2012-03-25 03:53:00